20040402,000002,863992,32.589440,-122.815260,NaN,16.371,32.895,41.883,2091.80,0.0, NaN,14.818,14.784, NaN,24.045,   NaN,14.56,1014.10,79.19,13.71,355.7,352.2,13.9,15.5,334.4,331.0,13.0,14.7,NaN, NaN,NaN,336.1,NaN,1080864003,NaN,NaN,2.1,000003,   NaN,335.4,32.589300,-122.815220,0.08,NaN,NaN,16.375, NaN,NaN,NaN, NaN, NaN
20040402,000032,864022,32.589630,-122.815320,NaN,16.353,32.781,41.736,2049.56,0.0, NaN,14.813,14.781, NaN,23.961,   NaN,14.60,1014.08,79.75,13.74,358.6,354.4,14.0,16.0,337.7,333.4,13.2,15.2,NaN, NaN,NaN,305.4,NaN,1080864033,NaN,NaN,2.2,000033,   NaN,343.5,32.589490,-122.815290,0.09,NaN,NaN,16.357, NaN,NaN,NaN, NaN, NaN
20040402,000102,864051,32.589830,-122.815330,NaN,16.354,32.877,41.846,1971.27,0.0, NaN,14.810,14.779, NaN,24.035,   NaN,14.59,1014.08,79.53,13.73,0.2,354.8,13.6,15.5,339.8,334.3,12.9,14.8,NaN, NaN,NaN,39.6,NaN,1080864063,NaN,NaN,2.8,000063,   NaN,341.8,32.589670,-122.815310,0.22,NaN,NaN,16.358, NaN,NaN,NaN, NaN, NaN
20040402,000132,864082,32.590000,-122.815380,NaN,16.402,32.848,41.859,1843.15,0.0, NaN,14.807,14.776, NaN,24.002,   NaN,14.63,1014.18,80.08,13.76,355.8,353.0,13.9,15.2,338.1,335.3,13.1,14.5,NaN, NaN,NaN,281.0,NaN,1080864093,NaN,NaN,4.0,000093,   NaN,343.6,32.589850,-122.815350,0.52,NaN,NaN,16.406, NaN,NaN,NaN, NaN, NaN
20040402,000202,864112,32.590210,-122.815350,NaN,16.504,32.846,41.952,1971.44,0.0, NaN,14.806,14.773, NaN,23.977,   NaN,14.63,1014.11,79.86,13.76,353.9,351.0,13.9,14.9,336.7,333.7,13.2,14.3,NaN, NaN,NaN,61.4,NaN,1080864123,NaN,NaN,2.8,000123,   NaN,347.4,32.590060,-122.815350,0.35,NaN,NaN,16.508, NaN,NaN,NaN, NaN, NaN
20040402,000232,864142,32.590390,-122.815300,NaN,16.372,32.883,41.872,1722.08,0.0, NaN,14.804,14.770, NaN,24.036,   NaN,14.60,1014.06,80.00,13.76,350.4,348.9,13.6,14.4,333.8,332.4,13.0,13.9,NaN, NaN,NaN,338.0,NaN,1080864153,NaN,NaN,3.2,000152,   NaN,343.6,32.590240,-122.815290,0.46,NaN,NaN,16.376, NaN,NaN,NaN, NaN, NaN
20040402,000302,864172,32.590600,-122.815330,NaN,16.330,32.897,41.847,2003.37,0.0, NaN,14.800,14.768, NaN,24.056,   NaN,14.58,1014.15,79.72,13.74,352.6,351.3,13.6,14.8,334.2,333.0,13.0,14.2,NaN, NaN,NaN,4.8,NaN,1080864183,NaN,NaN,1.7,000183,   NaN,340.6,32.590450,-122.815300,0.52,NaN,NaN,16.334, NaN,NaN,NaN, NaN, NaN
20040402,000332,864202,32.590820,-122.815370,NaN,16.312,32.877,41.807,2040.03,0.0, NaN,14.799,14.766, NaN,24.044,   NaN,14.63,1014.07,80.22,13.76,353.0,352.5,13.5,14.9,332.8,332.5,12.8,14.2,NaN, NaN,NaN,309.6,NaN,1080864213,NaN,NaN,0.9,000213,   NaN,342.0,32.590680,-122.815350,0.41,NaN,NaN,16.316, NaN,NaN,NaN, NaN, NaN
20040402,000402,864231,32.591070,-122.815430,NaN,16.330,32.905,41.856,2041.22,0.0, NaN,14.797,14.764, NaN,24.061,   NaN,14.67,1014.15,80.38,13.79,353.3,350.9,13.1,14.0,333.8,331.2,12.3,13.1,NaN, NaN,NaN,29.9,NaN,1080864243,NaN,NaN,3.1,000243,   NaN,343.9,32.590910,-122.815420,0.33,NaN,NaN,16.334, NaN,NaN,NaN, NaN, NaN
20040402,000432,864262,32.591280,-122.815430,NaN,16.328,32.904,41.853,1961.66,0.0, NaN,14.792,14.762, NaN,24.061,   NaN,14.65,1014.00,80.25,13.80,350.1,346.8,13.5,13.8,332.0,328.6,12.7,13.0,NaN, NaN,NaN,16.0,NaN,1080864273,NaN,NaN,4.9,000273,   NaN,343.4,32.591130,-122.815420,-0.28,NaN,NaN,16.332, NaN,NaN,NaN, NaN, NaN
20040402,000502,864292,32.591480,-122.815390,NaN,16.356,32.905,41.881,1881.12,0.0, NaN,14.791,14.759, NaN,24.056,   NaN,14.62,1014.05,80.27,13.78,345.7,343.1,13.9,14.1,328.0,325.3,13.2,13.4,NaN, NaN,NaN,53.6,NaN,1080864303,NaN,NaN,5.0,000303,   NaN,343.2,32.591340,-122.815380,0.53,NaN,NaN,16.360, NaN,NaN,NaN, NaN, NaN
20040402,000532,864322,32.591690,-122.815390,NaN,16.350,32.903,41.873,2002.24,0.0, NaN,14.787,14.752, NaN,24.056,   NaN,14.73,1014.11,81.23,13.86,345.4,341.2,13.1,13.3,326.2,321.8,12.5,12.7,NaN, NaN,NaN,30.8,NaN,1080864333,NaN,NaN,1.8,000333,   NaN,340.6,32.591550,-122.815370,0.31,NaN,NaN,16.354, NaN,NaN,NaN, NaN, NaN
20040402,000602,864352,32.591930,-122.815420,NaN,16.359,32.875,41.849,2026.23,0.0, NaN,14.784,14.751, NaN,24.032,   NaN,14.80,1014.07,81.29,13.88,346.5,342.8,12.8,13.1,326.5,322.7,12.1,12.4,NaN, NaN,NaN,301.4,NaN,1080864363,NaN,NaN,2.3,000362,   NaN,344.6,32.591800,-122.815410,0.24,NaN,NaN,16.363, NaN,NaN,NaN, NaN, NaN
20040402,000632,864382,32.592230,-122.815410,NaN,16.330,32.891,41.841,2002.59,0.0, NaN,14.780,14.748, NaN,24.051,   NaN,14.69,1014.09,80.83,13.83,347.8,345.4,13.0,13.3,327.4,325.0,12.1,12.5,NaN, NaN,NaN,276.7,NaN,1080864393,NaN,NaN,2.3,000392,   NaN,339.4,32.592080,-122.815400,0.14,NaN,NaN,16.334, NaN,NaN,NaN, NaN, NaN
20040402,000702,864412,32.592520,-122.815470,NaN,16.322,32.895,41.837,1957.36,0.0, NaN,14.777,14.744, NaN,24.056,   NaN,14.71,1014.08,81.16,13.86,346.9,344.8,13.2,13.5,327.1,325.2,12.3,12.6,NaN, NaN,NaN,53.7,NaN,1080864423,NaN,NaN,4.0,000423,   NaN,345.4,32.592370,-122.815470,0.50,NaN,NaN,16.326, NaN,NaN,NaN, NaN, NaN
20040402,000732,864442,32.592840,-122.815470,NaN,16.328,32.902,41.850,2008.17,0.0, NaN,14.775,14.740, NaN,24.060,   NaN,14.62,1013.98,80.64,13.80,346.9,344.7,13.7,14.1,327.6,325.5,12.7,13.1,NaN, NaN,NaN,15.9,NaN,1080864453,NaN,NaN,2.3,000453,   NaN,342.1,32.592700,-122.815460,0.41,NaN,NaN,16.332, NaN,NaN,NaN, NaN, NaN
20040402,000802,864472,32.593160,-122.815480,NaN,16.345,32.880,41.842,2016.12,0.0, NaN,14.769,14.734, NaN,24.039,   NaN,14.55,1014.09,80.57,13.76,346.7,344.0,14.6,14.6,327.4,324.5,13.6,13.7,NaN, NaN,NaN,85.8,NaN,1080864483,NaN,NaN,2.6,000483,   NaN,341.1,32.593020,-122.815480,0.41,NaN,NaN,16.349, NaN,NaN,NaN, NaN, NaN
20040402,000832,864502,32.593400,-122.815530,NaN,16.332,32.905,41.858,1999.28,0.0, NaN,14.765,14.730, NaN,24.061,   NaN,14.62,1014.12,81.20,13.78,348.0,345.0,14.0,14.0,328.6,325.4,13.0,13.1,NaN, NaN,NaN,295.4,NaN,1080864513,NaN,NaN,4.1,000513,   NaN,340.9,32.593250,-122.815500,0.20,NaN,NaN,16.336, NaN,NaN,NaN, NaN, NaN
20040402,000902,864532,32.593580,-122.815500,NaN,16.355,32.900,41.874,1968.27,0.0, NaN,14.761,14.726, NaN,24.052,   NaN,14.66,1014.15,81.39,13.80,349.6,347.0,12.6,13.2,330.1,327.5,11.8,12.5,NaN, NaN,NaN,71.4,NaN,1080864543,NaN,NaN,2.3,000543,   NaN,345.1,32.593440,-122.815500,0.28,NaN,NaN,16.359, NaN,NaN,NaN, NaN, NaN
20040402,000932,864561,32.593740,-122.815470,NaN,16.353,32.900,41.873,1944.23,0.0, NaN,14.756,14.721, NaN,24.053,   NaN,14.68,1014.05,81.54,13.80,349.9,347.5,12.3,13.1,331.1,328.8,11.7,12.5,NaN, NaN,NaN,16.3,NaN,1080864573,NaN,NaN,2.9,000573,   NaN,340.7,32.593600,-122.815450,0.40,NaN,NaN,16.357, NaN,NaN,NaN, NaN, NaN
20040402,001002,864592,32.593910,-122.815490,NaN,16.340,32.870,41.826,1965.47,0.0, NaN,14.753,14.718, NaN,24.033,   NaN,14.68,1014.09,81.77,13.81,351.5,348.2,12.5,13.3,332.1,328.8,12.0,12.8,NaN, NaN,NaN,338.8,NaN,1080864603,NaN,NaN,2.8,000603,   NaN,341.4,32.593760,-122.815450,0.21,NaN,NaN,16.344, NaN,NaN,NaN, NaN, NaN
20040402,001032,864622,32.594130,-122.815480,NaN,16.324,32.877,41.819,1994.19,0.0, NaN,14.749,14.714, NaN,24.042,   NaN,14.69,1014.16,81.93,13.82,351.5,349.4,12.3,13.1,331.4,329.4,11.7,12.5,NaN, NaN,NaN,278.9,NaN,1080864633,NaN,NaN,1.9,000633,   NaN,341.5,32.594000,-122.815450,0.51,NaN,NaN,16.328, NaN,NaN,NaN, NaN, NaN
20040402,001102,864652,32.594380,-122.815530,NaN,16.293,32.893,41.807,1992.96,0.0, NaN,14.748,14.713, NaN,24.061,   NaN,14.78,1014.07,82.64,13.87,349.6,348.1,12.2,12.6,329.4,328.0,11.4,11.8,NaN, NaN,NaN,338.7,NaN,1080864663,NaN,NaN,1.8,000663,   NaN,341.3,32.594250,-122.815510,0.36,NaN,NaN,16.297, NaN,NaN,NaN, NaN, NaN
20040402,001132,864682,32.594680,-122.815610,NaN,16.283,32.886,41.790,1984.38,0.0, NaN,14.747,14.712, NaN,24.058,   NaN,14.72,1014.05,82.09,13.85,347.5,345.5,13.1,13.0,327.6,325.5,12.1,12.1,NaN, NaN,NaN,3.3,NaN,1080864693,NaN,NaN,1.6,000692,   NaN,343.2,32.594530,-122.815580,0.42,NaN,NaN,16.287, NaN,NaN,NaN, NaN, NaN
20040402,001202,864712,32.594950,-122.815620,NaN,16.294,32.893,41.808,1973.46,0.0, NaN,14.745,14.708, NaN,24.061,   NaN,14.54,1014.13,81.34,13.75,347.9,345.0,14.0,14.2,328.5,325.4,13.0,13.3,NaN, NaN,NaN,283.0,NaN,1080864723,NaN,NaN,0.6,000723,   NaN,343.6,32.594810,-122.815590,0.37,NaN,NaN,16.298, NaN,NaN,NaN, NaN, NaN
20040402,001232,864742,32.595230,-122.815620,NaN,16.330,32.893,41.843,1973.06,0.0, NaN,14.744,14.708, NaN,24.053,   NaN,14.56,1014.06,81.78,13.75,349.0,346.4,13.7,14.4,329.8,327.2,12.8,13.5,NaN, NaN,NaN,317.3,NaN,1080864753,NaN,NaN,1.4,000753,   NaN,342.6,32.595080,-122.815590,0.32,NaN,NaN,16.334, NaN,NaN,NaN, NaN, NaN
20040402,001302,864772,32.595520,-122.815630,NaN,16.331,32.881,41.830,1984.92,0.0, NaN,14.738,14.705, NaN,24.043,   NaN,14.53,1013.95,81.38,13.73,350.2,347.6,13.5,14.4,330.9,328.5,12.6,13.5,NaN, NaN,NaN,36.5,NaN,1080864783,NaN,NaN,3.1,000783,   NaN,342.1,32.595380,-122.815610,0.23,NaN,NaN,16.335, NaN,NaN,NaN, NaN, NaN
20040402,001332,864802,32.595800,-122.815730,NaN,16.299,32.886,41.806,1982.62,0.0, NaN,14.732,14.699, NaN,24.054,   NaN,14.45,1013.96,80.79,13.67,353.4,349.3,14.3,14.9,333.9,330.0,13.4,13.9,NaN, NaN,NaN,353.9,NaN,1080864813,NaN,NaN,3.7,000813,   NaN,337.6,32.595650,-122.815690,0.24,NaN,NaN,16.303, NaN,NaN,NaN, NaN, NaN
20040402,001402,864832,32.595990,-122.815750,NaN,16.306,32.884,41.810,1976.77,0.0, NaN,14.727,14.693, NaN,24.052,   NaN,14.46,1014.00,80.93,13.66,356.8,351.5,14.3,15.3,337.0,331.8,13.5,14.5,NaN, NaN,NaN,308.1,NaN,1080864843,NaN,NaN,2.3,000842,   NaN,343.1,32.595830,-122.815740,0.05,NaN,NaN,16.310, NaN,NaN,NaN, NaN, NaN
20040402,001432,864862,32.596230,-122.815780,NaN,16.271,32.880,41.772,1968.53,0.0, NaN,14.721,14.686, NaN,24.056,   NaN,14.53,1014.08,81.13,13.71,355.2,351.2,13.9,14.9,336.6,332.4,13.1,14.1,NaN, NaN,NaN,110.8,NaN,1080864873,NaN,NaN,2.8,000873,   NaN,344.2,32.596090,-122.815770,0.26,NaN,NaN,16.275, NaN,NaN,NaN, NaN, NaN
20040402,001502,864891,32.596440,-122.815780,NaN,16.261,32.881,41.764,1963.95,0.0, NaN,14.716,14.682, NaN,24.059,   NaN,14.55,1014.08,81.39,13.74,353.0,348.7,13.2,13.9,336.0,331.5,12.4,13.2,NaN, NaN,NaN,38.5,NaN,1080864903,NaN,NaN,3.9,000902,   NaN,342.7,32.596300,-122.815750,0.03,NaN,NaN,16.265, NaN,NaN,NaN, NaN, NaN
20040402,001532,864922,32.596700,-122.815800,NaN,16.256,32.884,41.763,1971.51,0.0, NaN,14.713,14.679, NaN,24.063,   NaN,14.64,1014.12,81.82,13.78,350.6,348.3,12.6,13.4,331.5,329.4,11.8,12.7,NaN, NaN,NaN,339.3,NaN,1080864933,NaN,NaN,2.0,000932,   NaN,340.7,32.596560,-122.815770,0.31,NaN,NaN,16.260, NaN,NaN,NaN, NaN, NaN
20040402,001602,864952,32.596980,-122.815830,NaN,16.255,32.888,41.766,1978.19,0.0, NaN,14.709,14.676, NaN,24.066,   NaN,14.66,1014.13,82.01,13.80,349.6,347.2,12.3,12.9,328.8,326.4,11.4,12.1,NaN, NaN,NaN,55.3,NaN,1080864963,NaN,NaN,2.2,000963,   NaN,339.0,32.596840,-122.815810,0.25,NaN,NaN,16.259, NaN,NaN,NaN, NaN, NaN
20040402,001632,864982,32.597250,-122.815880,NaN,16.253,32.888,41.765,1968.49,0.0, NaN,14.705,14.670, NaN,24.066,   NaN,14.71,1014.03,82.10,13.80,347.0,345.6,12.8,13.2,326.5,325.1,11.9,12.3,NaN, NaN,NaN,47.7,NaN,1080864993,NaN,NaN,2.7,000993,   NaN,344.2,32.597110,-122.815880,0.16,NaN,NaN,16.257, NaN,NaN,NaN, NaN, NaN
20040402,001702,865012,32.597530,-122.815860,NaN,16.255,32.886,41.764,1955.45,0.0, NaN,14.700,14.667, NaN,24.065,   NaN,14.53,1013.93,80.97,13.74,346.0,343.9,13.6,13.8,327.1,324.9,12.7,12.9,NaN, NaN,NaN,5.8,NaN,1080865023,NaN,NaN,3.9,001023,   NaN,343.4,32.597380,-122.815850,0.73,NaN,NaN,16.259, NaN,NaN,NaN, NaN, NaN
20040402,001732,865042,32.597720,-122.815840,NaN,16.265,32.886,41.774,1961.76,0.0, NaN,14.701,14.666, NaN,24.062,   NaN,14.49,1014.06,81.24,13.71,345.8,343.6,14.1,14.2,326.9,324.7,13.3,13.5,NaN, NaN,NaN,84.5,NaN,1080865053,NaN,NaN,2.2,001053,   NaN,342.1,32.597580,-122.815830,0.43,NaN,NaN,16.269, NaN,NaN,NaN, NaN, NaN
20040402,001802,865071,32.597910,-122.815860,NaN,16.268,32.885,41.775,1948.13,0.0, NaN,14.695,14.661, NaN,24.060,   NaN,14.58,1014.01,81.59,13.74,347.8,345.5,13.3,13.6,327.5,325.1,12.6,13.0,NaN, NaN,NaN,236.8,NaN,1080865083,NaN,NaN,2.8,001083,   NaN,342.9,32.597770,-122.815830,-0.86,NaN,NaN,16.272, NaN,NaN,NaN, NaN, NaN
20040402,001832,865102,32.598090,-122.815880,NaN,16.289,32.888,41.798,1948.89,0.0, NaN,14.691,14.659, NaN,24.058,   NaN,14.54,1014.05,81.23,13.73,349.4,346.7,13.2,13.4,329.8,327.1,12.5,12.9,NaN, NaN,NaN,277.2,NaN,1080865113,NaN,NaN,2.6,001113,   NaN,339.7,32.597970,-122.815850,0.25,NaN,NaN,16.293, NaN,NaN,NaN, NaN, NaN
20040402,001902,865132,32.598310,-122.815910,NaN,16.459,32.893,41.964,1948.56,0.0, NaN,14.687,14.654, NaN,24.023,   NaN,14.55,1014.02,81.45,13.73,350.4,348.3,13.0,13.8,331.2,329.1,12.3,13.1,NaN, NaN,NaN,274.6,NaN,1080865143,NaN,NaN,2.0,001143,   NaN,343.1,32.598160,-122.815880,0.56,NaN,NaN,16.463, NaN,NaN,NaN, NaN, NaN
20040402,001932,865162,32.598500,-122.815880,NaN,16.307,32.870,41.795,1945.29,0.0, NaN,14.682,14.649, NaN,24.040,   NaN,14.56,1013.97,81.31,13.73,350.8,348.0,13.1,13.8,331.7,328.8,12.4,13.2,NaN, NaN,NaN,73.8,NaN,1080865173,NaN,NaN,4.8,001173,   NaN,345.1,32.598360,-122.815880,0.34,NaN,NaN,16.311, NaN,NaN,NaN, NaN, NaN
20040402,002002,865192,32.598670,-122.815860,NaN,16.277,32.878,41.776,1858.89,0.0, NaN,14.678,14.643, NaN,24.053,   NaN,14.53,1014.02,81.34,13.73,345.7,343.0,13.0,13.2,327.5,324.8,12.4,12.8,NaN, NaN,NaN,350.7,NaN,1080865203,NaN,NaN,0.5,001203,   NaN,341.9,32.598520,-122.815830,-0.32,NaN,NaN,16.281, NaN,NaN,NaN, NaN, NaN
20040402,002032,865222,32.598870,-122.815820,NaN,16.341,32.741,41.680,1933.56,0.0, NaN,14.675,14.641, NaN,23.933,   NaN,14.67,1014.01,82.17,13.79,344.7,341.2,12.4,12.7,325.4,322.0,11.9,12.3,NaN, NaN,NaN,27.5,NaN,1080865233,NaN,NaN,2.4,001233,   NaN,340.2,32.598710,-122.815800,0.26,NaN,NaN,16.345, NaN,NaN,NaN, NaN, NaN
20040402,002102,865252,32.599080,-122.815860,NaN,16.342,32.717,41.653,1928.19,0.0, NaN,14.673,14.639, NaN,23.915,   NaN,14.68,1013.91,81.92,13.80,346.3,342.8,12.6,12.8,326.2,322.7,12.0,12.2,NaN, NaN,NaN,30.7,NaN,1080865263,NaN,NaN,0.7,001263,   NaN,342.3,32.598940,-122.815850,-0.11,NaN,NaN,16.346, NaN,NaN,NaN, NaN, NaN
20040402,002132,865282,32.599290,-122.815940,NaN,16.370,32.749,41.715,1940.56,0.0, NaN,14.671,14.635, NaN,23.933,   NaN,14.59,1013.97,81.55,13.78,348.0,344.8,12.9,13.3,328.4,325.2,12.2,12.6,NaN, NaN,NaN,249.4,NaN,1080865293,NaN,NaN,2.3,001293,   NaN,339.6,32.599150,-122.815910,0.04,NaN,NaN,16.374, NaN,NaN,NaN, NaN, NaN
20040402,002202,865312,32.599520,-122.816010,NaN,16.377,32.848,41.836,1929.72,0.0, NaN,14.665,14.630, NaN,24.008,   NaN,14.59,1013.98,81.58,13.77,350.1,347.0,13.3,13.8,331.3,328.1,12.5,13.1,NaN, NaN,NaN,293.5,NaN,1080865323,NaN,NaN,5.8,001323,   NaN,342.6,32.599370,-122.815970,0.59,NaN,NaN,16.381, NaN,NaN,NaN, NaN, NaN
20040402,002232,865342,32.599760,-122.815940,NaN,16.364,32.818,41.789,1817.88,0.0, NaN,14.661,14.626, NaN,23.988,   NaN,14.57,1013.97,81.30,13.76,349.6,348.5,13.2,14.0,332.4,331.3,12.4,13.3,NaN, NaN,NaN,289.1,NaN,1080865353,NaN,NaN,2.0,001353,   NaN,344.1,32.599610,-122.815920,0.17,NaN,NaN,16.368, NaN,NaN,NaN, NaN, NaN
20040402,002302,865372,32.599980,-122.815900,NaN,16.429,32.813,41.845,1906.31,0.0, NaN,14.656,14.621, NaN,23.969,   NaN,14.46,1013.94,80.39,13.70,346.9,346.3,14.2,14.5,330.0,329.4,13.5,13.9,NaN, NaN,NaN,42.0,NaN,1080865383,NaN,NaN,2.8,001383,   NaN,341.2,32.599840,-122.815900,0.63,NaN,NaN,16.433, NaN,NaN,NaN, NaN, NaN
20040402,002332,865401,32.600190,-122.815980,NaN,16.412,32.818,41.834,1926.24,0.0, NaN,14.652,14.617, NaN,23.976,   NaN,14.37,1013.92,79.57,13.63,347.6,347.1,14.8,15.1,328.4,328.1,14.0,14.4,NaN, NaN,NaN,335.8,NaN,1080865413,NaN,NaN,3.3,001413,   NaN,338.5,32.600060,-122.815940,0.11,NaN,NaN,16.416, NaN,NaN,NaN, NaN, NaN
20040402,002402,865432,32.600420,-122.815990,NaN,16.292,32.799,41.700,1896.65,0.0, NaN,14.645,14.610, NaN,23.989,   NaN,14.38,1014.02,79.45,13.63,350.9,349.8,14.1,14.9,330.2,329.2,13.3,14.2,NaN, NaN,NaN,331.6,NaN,1080865443,NaN,NaN,1.8,001443,   NaN,344.6,32.600270,-122.815990,0.33,NaN,NaN,16.296, NaN,NaN,NaN, NaN, NaN
20040402,002432,865462,32.600650,-122.816040,NaN,16.229,32.822,41.666,1902.16,0.0, NaN,14.637,14.600, NaN,24.021,   NaN,14.53,1013.98,80.26,13.72,351.6,349.5,13.1,14.3,331.3,329.2,12.3,13.5,NaN, NaN,NaN,1.1,NaN,1080865473,NaN,NaN,2.7,001473,   NaN,341.6,32.600510,-122.816020,0.04,NaN,NaN,16.233, NaN,NaN,NaN, NaN, NaN
20040402,002502,865492,32.600900,-122.816060,NaN,16.217,32.831,41.665,1874.12,0.0, NaN,14.631,14.595, NaN,24.031,   NaN,14.60,1013.97,80.45,13.77,352.8,350.1,12.7,14.1,332.9,330.4,11.9,13.4,NaN, NaN,NaN,43.1,NaN,1080865503,NaN,NaN,0.0,001503,   NaN,341.5,32.600760,-122.816050,0.25,NaN,NaN,16.221, NaN,NaN,NaN, NaN, NaN
20040402,002532,865522,32.601170,-122.816120,NaN,16.344,32.776,41.722,1878.32,0.0, NaN,14.625,14.590, NaN,23.959,   NaN,14.58,1013.95,80.33,13.76,356.4,351.6,13.0,14.4,336.4,331.6,12.1,13.6,NaN, NaN,NaN,350.2,NaN,1080865533,NaN,NaN,1.8,001533,   NaN,343.9,32.601040,-122.816100,-0.03,NaN,NaN,16.348, NaN,NaN,NaN, NaN, NaN
20040402,002602,865552,32.601450,-122.816120,NaN,16.270,32.850,41.737,1881.73,0.0, NaN,14.621,14.586, NaN,24.033,   NaN,14.63,1014.04,80.93,13.78,353.8,349.9,13.2,14.4,334.1,330.2,12.3,13.5,NaN, NaN,NaN,49.1,NaN,1080865563,NaN,NaN,1.9,001563,   NaN,341.3,32.601300,-122.816100,0.50,NaN,NaN,16.274, NaN,NaN,NaN, NaN, NaN
20040402,002632,865581,32.601720,-122.816190,NaN,16.201,32.834,41.654,1888.60,0.0, NaN,14.619,14.582, NaN,24.036,   NaN,14.66,1013.96,80.96,13.78,349.3,348.8,13.5,14.5,329.7,329.3,12.5,13.7,NaN, NaN,NaN,326.7,NaN,1080865593,NaN,NaN,4.3,001593,   NaN,344.2,32.601570,-122.816160,0.41,NaN,NaN,16.205, NaN,NaN,NaN, NaN, NaN
20040402,002702,865612,32.602010,-122.816150,NaN,16.172,32.816,41.606,1872.16,0.0, NaN,14.613,14.578, NaN,24.029,   NaN,14.52,1013.98,80.31,13.75,348.4,346.9,13.9,14.7,329.2,328.0,13.0,13.9,NaN, NaN,NaN,332.3,NaN,1080865623,NaN,NaN,2.8,001623,   NaN,344.3,32.601870,-122.816130,0.68,NaN,NaN,16.176, NaN,NaN,NaN, NaN, NaN
20040402,002732,865642,32.602310,-122.816170,NaN,16.179,32.852,41.654,1865.31,0.0, NaN,14.606,14.570, NaN,24.055,   NaN,14.54,1013.98,80.65,13.75,346.5,343.9,14.1,14.3,327.6,325.0,13.2,13.4,NaN, NaN,NaN,25.5,NaN,1080865653,NaN,NaN,3.2,001653,   NaN,340.7,32.602170,-122.816150,0.42,NaN,NaN,16.183, NaN,NaN,NaN, NaN, NaN
20040402,002802,865672,32.602600,-122.816200,NaN,16.210,32.839,41.669,1844.14,0.0, NaN,14.599,14.563, NaN,24.039,   NaN,14.55,1013.94,80.52,13.75,344.9,343.1,14.2,14.0,325.1,323.2,13.2,13.1,NaN, NaN,NaN,20.2,NaN,1080865683,NaN,NaN,3.0,001682,   NaN,343.1,32.602480,-122.816180,0.49,NaN,NaN,16.214, NaN,NaN,NaN, NaN, NaN
20040402,002832,865702,32.602910,-122.816260,NaN,16.182,32.847,41.651,1880.65,0.0, NaN,14.589,14.554, NaN,24.051,   NaN,14.55,1013.89,80.50,13.76,344.9,343.3,14.7,14.4,324.6,323.1,13.7,13.5,NaN, NaN,NaN,58.2,NaN,1080865713,NaN,NaN,2.7,001712,   NaN,342.6,32.602770,-122.816220,0.39,NaN,NaN,16.186, NaN,NaN,NaN, NaN, NaN
20040402,002902,865732,32.603160,-122.816220,NaN,16.174,32.842,41.638,1870.86,0.0, NaN,14.581,14.544, NaN,24.049,   NaN,14.49,1013.88,80.10,13.71,343.6,342.2,14.8,14.8,324.4,323.0,13.9,13.9,NaN, NaN,NaN,52.3,NaN,1080865743,NaN,NaN,3.1,001742,   NaN,347.4,32.603010,-122.816210,0.28,NaN,NaN,16.178, NaN,NaN,NaN, NaN, NaN
20040402,002932,865762,32.603390,-122.816200,NaN,16.176,32.851,41.650,1849.23,0.0, NaN,14.571,14.537, NaN,24.055,   NaN,14.47,1013.98,80.08,13.69,343.9,342.3,15.0,14.9,325.8,324.1,14.3,14.2,NaN, NaN,NaN,37.2,NaN,1080865773,NaN,NaN,3.2,001772,   NaN,342.6,32.603250,-122.816170,0.53,NaN,NaN,16.180, NaN,NaN,NaN, NaN, NaN
20040402,003002,865792,32.603680,-122.816200,NaN,16.173,32.853,41.649,1858.68,0.0, NaN,14.563,14.528, NaN,24.058,   NaN,14.46,1013.99,80.09,13.68,346.9,345.2,15.0,15.1,327.6,325.9,14.2,14.3,NaN, NaN,NaN,316.1,NaN,1080865803,NaN,NaN,2.8,001802,   NaN,340.8,32.603540,-122.816180,0.21,NaN,NaN,16.177, NaN,NaN,NaN, NaN, NaN
20040402,003032,865822,32.603980,-122.816270,NaN,16.172,32.848,41.643,1866.48,0.0, NaN,14.554,14.520, NaN,24.054,   NaN,14.49,1013.99,80.31,13.69,349.2,348.2,14.7,15.1,328.8,327.8,13.8,14.2,NaN, NaN,NaN,12.7,NaN,1080865833,NaN,NaN,0.4,001832,   NaN,342.1,32.603840,-122.816250,0.30,NaN,NaN,16.176, NaN,NaN,NaN, NaN, NaN
20040402,003102,865852,32.604270,-122.816370,NaN,16.164,32.836,41.622,1858.78,0.0, NaN,14.550,14.513, NaN,24.047,   NaN,14.53,1013.94,80.60,13.73,348.0,345.8,14.4,14.7,328.2,325.9,13.3,13.7,NaN, NaN,NaN,313.1,NaN,1080865863,NaN,NaN,2.0,001862,   NaN,342.6,32.604140,-122.816320,0.41,NaN,NaN,16.168, NaN,NaN,NaN, NaN, NaN
20040402,003132,865882,32.604580,-122.816310,NaN,16.156,32.850,41.630,1857.48,0.0, NaN,14.543,14.505, NaN,24.059,   NaN,14.47,1013.88,80.09,13.69,347.4,344.1,14.2,14.3,327.4,324.0,13.2,13.5,NaN, NaN,NaN,316.2,NaN,1080865893,NaN,NaN,1.7,001892,   NaN,339.1,32.604440,-122.816290,-0.21,NaN,NaN,16.160, NaN,NaN,NaN, NaN, NaN
20040402,003202,865911,32.604830,-122.816390,NaN,16.149,32.849,41.623,1859.41,0.0, NaN,14.534,14.497, NaN,24.060,   NaN,14.52,1013.96,80.50,13.70,349.3,346.6,13.7,14.5,326.7,324.2,12.8,13.8,NaN, NaN,NaN,281.1,NaN,1080865923,NaN,NaN,4.1,001922,   NaN,334.7,32.604690,-122.816360,0.25,NaN,NaN,16.153, NaN,NaN,NaN, NaN, NaN
20040402,003233,865943,32.605070,-122.816460,NaN,16.153,32.843,41.620,1860.46,0.0, NaN,14.527,14.490, NaN,24.054,   NaN,14.53,1013.94,80.39,13.72,353.8,350.1,13.4,14.7,328.8,324.9,12.5,13.9,NaN, NaN,NaN,249.6,NaN,1080865954,NaN,NaN,2.4,001953,   NaN,336.6,32.604930,-122.816430,0.18,NaN,NaN,16.157, NaN,NaN,NaN, NaN, NaN
20040402,003303,865973,32.605260,-122.816490,NaN,16.219,32.843,41.682,1844.76,0.0, NaN,14.520,14.483, NaN,24.039,   NaN,14.50,1013.96,79.96,13.70,353.4,349.9,14.0,14.9,329.7,326.0,13.2,14.2,NaN, NaN,NaN,72.8,NaN,1080865984,NaN,NaN,5.7,001983,   NaN,343.2,32.605120,-122.816460,0.23,NaN,NaN,16.223, NaN,NaN,NaN, NaN, NaN
20040402,003333,866003,32.605480,-122.816530,NaN,16.192,32.809,41.618,1836.57,0.0, NaN,14.516,14.480, NaN,24.020,   NaN,14.49,1013.93,80.09,13.69,349.7,348.8,13.6,14.3,328.7,328.1,12.9,13.7,NaN, NaN,NaN,24.0,NaN,1080866014,NaN,NaN,4.0,002013,   NaN,340.2,32.605350,-122.816500,-0.14,NaN,NaN,16.196, NaN,NaN,NaN, NaN, NaN
20040402,003402,866032,32.605780,-122.816600,NaN,16.131,32.812,41.564,1835.61,0.0, NaN,14.512,14.475, NaN,24.036,   NaN,14.50,1013.92,79.76,13.71,356.5,352.1,13.2,14.7,335.7,331.2,12.3,13.9,NaN, NaN,NaN,281.5,NaN,1080866043,NaN,NaN,5.9,002042,   NaN,339.4,32.605640,-122.816580,-0.02,NaN,NaN,16.135, NaN,NaN,NaN, NaN, NaN
20040402,003432,866062,32.606130,-122.816670,NaN,16.118,32.821,41.561,1825.70,0.0, NaN,14.505,14.467, NaN,24.046,   NaN,14.59,1013.98,80.50,13.75,356.9,351.0,13.2,14.6,335.7,329.5,12.1,13.6,NaN, NaN,NaN,31.1,NaN,1080866073,NaN,NaN,2.8,002072,   NaN,342.4,32.605970,-122.816640,0.62,NaN,NaN,16.122, NaN,NaN,NaN, NaN, NaN
20040402,003502,866092,32.606480,-122.816720,NaN,16.134,32.836,41.594,1818.83,0.0, NaN,14.499,14.462, NaN,24.053,   NaN,14.61,1013.90,80.12,13.77,350.6,347.9,13.4,14.3,329.2,326.4,12.2,13.1,NaN, NaN,NaN,344.2,NaN,1080866103,NaN,NaN,1.9,002102,   NaN,338.7,32.606340,-122.816690,0.36,NaN,NaN,16.138, NaN,NaN,NaN, NaN, NaN
20040402,003532,866122,32.606830,-122.816790,NaN,16.207,32.824,41.649,1806.82,0.0, NaN,14.494,14.459, NaN,24.028,   NaN,14.55,1013.91,79.93,13.74,354.7,349.6,13.4,14.8,332.5,327.2,12.2,13.6,NaN, NaN,NaN,346.1,NaN,1080866133,NaN,NaN,4.4,002132,   NaN,338.0,32.606680,-122.816770,0.67,NaN,NaN,16.211, NaN,NaN,NaN, NaN, NaN
20040402,003602,866152,32.607180,-122.816930,NaN,16.178,32.820,41.617,1821.21,0.0, NaN,14.489,14.453, NaN,24.031,   NaN,14.52,1013.85,79.31,13.73,357.6,352.6,13.5,15.2,334.7,329.5,12.2,13.9,NaN, NaN,NaN,347.6,NaN,1080866163,NaN,NaN,3.7,002162,   NaN,339.8,32.607040,-122.816910,-0.08,NaN,NaN,16.182, NaN,NaN,NaN, NaN, NaN
20040402,003632,866182,32.607510,-122.817020,NaN,16.140,32.824,41.586,1780.22,0.0, NaN,14.485,14.448, NaN,24.043,   NaN,14.50,1013.90,79.45,13.71,352.4,350.6,13.4,14.7,330.5,328.9,12.0,13.4,NaN, NaN,NaN,285.0,NaN,1080866193,NaN,NaN,4.9,002192,   NaN,342.1,32.607370,-122.817010,-0.25,NaN,NaN,16.144, NaN,NaN,NaN, NaN, NaN